Tracking 31027 objects as of 19-Jul-2025
HD Live streaming from Space Station
objects crossing your sky now

CZ-3B R/B

Track CZ-3B R/B now!
10-day predictions


NORAD ID: 43110
Int'l Code: 2018-003D
Perigee: 442.3 km
Apogee: 17,507.4 km
Inclination: 55.0 °
Period: 315.3 minutes
Semi major axis: 15345 km
RCS: Unknown
Launch date: January 11, 2018
Source: People's Republic of China (PRC)
Launch site: Xichang Space Center, China (XSC)

Note: This is a ROCKET BODY
Your satellite tracking list
STARLINK-30236
Track 1 satellite(s)




NASA's NSSDC Master Catalog

Two Line Element Set (TLE):
1 43110U 18003D   25198.34987181  .00000022  00000-0  18161-3 0  9991
2 43110  54.9886 315.3749 5560184 318.9409  10.3929  4.56686275124657
Source of the keplerian elements: AFSPC